Location: Caltech
(34.1382°N, 118.1253°W)
Time: 01:12:24
(UTC-07:00)

Iridium 94 - Visible Passes

Search period start: 29 May 2015 00:00
Search period end: 08 June 2015 00:00
Orbit: 776 x 779 km, 86.4° (Epoch: 28 May)

Date Brightness Start Highest point End Pass type
(mag) Time Alt. Az. Time Alt. Az. Time Alt. Az.
29 May 7.4 21:03:52 12° E 21:04:53 12° E 21:07:07 10° NE visible
29 May 5.9 22:44:19 52° SW 22:45:09 59° W 22:50:18 10° N visible
30 May 5.4 22:10:31 53° SSE 22:11:38 71° E 22:16:50 10° N visible
30 May 8.2 23:52:08 10° W 23:53:02 10° WNW 23:53:32 10° WNW visible
31 May 6.2 21:36:42 29° ESE 21:38:12 36° E 21:42:57 10° NNE visible
31 May 7.5 23:17:08 17° WSW 23:19:05 21° WNW 23:22:52 10° NNW visible
01 Jun 7.0 21:02:52 15° ESE 21:04:51 19° E 21:08:29 10° NE visible
01 Jun 6.6 22:43:18 28° SW 22:45:18 39° W 22:50:10 10° NNW visible
02 Jun 5.6 22:09:26 35° S 22:11:43 78° W 22:16:56 10° N visible
03 Jun 5.7 21:35:33 27° SSE 21:38:13 54° E 21:43:19 10° NNE visible
03 Jun 8.0 23:16:38 10° WSW 23:19:25 14° WNW 23:21:53 10° NW visible
04 Jun 6.5 21:01:39 15° SE 21:04:49 28° E 21:09:15 10° NNE visible
04 Jun 7.3 22:42:05 14° SW 22:45:32 27° W 22:49:51 10° NNW visible
05 Jun 7.3 20:28:57 10° ESE 20:31:30 14° E 20:34:21 10° NE visible
05 Jun 6.2 22:08:08 18° SSW 22:11:49 51° W 22:16:54 10° N visible
06 Jun 5.4 21:34:09 16° S 21:38:16 81° E 21:43:30 10° N visible
07 Jun 6.0 21:00:08 11° SSE 21:04:49 41° E 21:09:43 10° NNE visible
07 Jun 7.9 22:42:12 10° WSW 22:45:48 18° WNW 22:49:13 10° NW visible
